• In Russia
  • List of Countries
  • For 7 days
  • Water Temperature
  • Weather Map
  • Weather Widgets
  • user-avatar
    Login

    Hourly Weather Kapan

    Today, 16 December, Monday

    Time Temperature Precipitation Wind Pressure Humidity
    00:00 +5°C° 0 mm 3 mps 685 mmHg 61%
    01:00 +4°C° 0 mm 3 mps 685 mmHg 63%
    02:00 +4°C° 0 mm 3 mps 685 mmHg 64%
    03:00 +4°C° 0 mm 3 mps 685 mmHg 67%
    04:00 +5°C° 0 mm 2 mps 685 mmHg 67%
    05:00 +5°C° 0 mm 2 mps 686 mmHg 67%
    06:00 +5°C° 0 mm 2 mps 686 mmHg 67%
    07:00 +6°C° 0 mm 2 mps 686 mmHg 66%
    08:00 +8°C° 0 mm 1 mps 687 mmHg 64%
    09:00 +9°C° 0 mm 1 mps 687 mmHg 62%
    10:00 +10°C° 0 mm 1 mps 687 mmHg 60%
    11:00 +11°C° 0 mm 1 mps 687 mmHg 59%
    12:00 +11°C° 0 mm 1 mps 687 mmHg 57%
    13:00 +11°C° 0 mm 1 mps 687 mmHg 58%
    14:00 +11°C° 0 mm 1 mps 687 mmHg 58%
    15:00 +11°C° 0 mm 1 mps 686 mmHg 59%
    16:00 +10°C° 0 mm 1 mps 686 mmHg 65%
    17:00 +9°C° 0 mm 1 mps 687 mmHg 71%
    18:00 +6°C° 0 mm 0 mps 687 mmHg 77%
    19:00 +6°C° 0 mm 0 mps 687 mmHg 79%
    20:00 +6°C° 0 mm 0 mps 688 mmHg 81%
    21:00 +6°C° 0 mm 0 mps 688 mmHg 83%
    22:00 +6°C° 0 mm 0 mps 688 mmHg 84%
    23:00 +6°C° 0 mm 0 mps 688 mmHg 85%

    Tomorrow, 17 December, Tuesday

    Time Temperature Precipitation Wind Pressure Humidity
    00:00 +5°C° 0 mm 0 mps 689 mmHg 86%
    01:00 +5°C° 0.1 mm 0 mps 689 mmHg 87%
    02:00 +5°C° 0.1 mm 0 mps 689 mmHg 87%
    03:00 +5°C° 0.1 mm 0 mps 689 mmHg 88%
    04:00 +5°C° 0 mm 0 mps 689 mmHg 88%
    05:00 +5°C° 0 mm 0 mps 689 mmHg 89%
    06:00 +5°C° 0 mm 0 mps 689 mmHg 89%
    07:00 +5°C° 0 mm 0 mps 690 mmHg 86%
    08:00 +6°C° 0 mm 0 mps 690 mmHg 83%
    09:00 +6°C° 0 mm 0 mps 691 mmHg 79%
    10:00 +8°C° 0 mm 1 mps 691 mmHg 79%
    11:00 +8°C° 0 mm 1 mps 690 mmHg 79%
    12:00 +7°C° 0 mm 2 mps 690 mmHg 78%
    13:00 +9°C° 0 mm 1 mps 690 mmHg 78%
    14:00 +9°C° 0 mm 1 mps 690 mmHg 78%
    15:00 +9°C° 0 mm 1 mps 690 mmHg 78%
    16:00 +8°C° 0 mm 1 mps 690 mmHg 81%
    17:00 +7°C° 0 mm 1 mps 690 mmHg 85%
    18:00 +5°C° 0 mm 0 mps 690 mmHg 89%
    19:00 +5°C° 0 mm 0 mps 691 mmHg 87%
    20:00 +4°C° 0 mm 0 mps 691 mmHg 85%
    21:00 +5°C° 0 mm 1 mps 691 mmHg 83%
    22:00 +5°C° 0 mm 1 mps 691 mmHg 79%
    23:00 +5°C° 0 mm 1 mps 692 mmHg 76%

    Day after tomorrow, 18 December, Wednesday

    Time Temperature Precipitation Wind Pressure Humidity
    00:00 +5°C° 0 mm 1 mps 692 mmHg 73%
    01:00 +5°C° 0 mm 1 mps 692 mmHg 69%
    02:00 +5°C° 0 mm 1 mps 691 mmHg 66%
    03:00 +5°C° 0 mm 1 mps 691 mmHg 62%
    04:00 +5°C° 0 mm 1 mps 691 mmHg 59%
    05:00 +4°C° 0 mm 2 mps 691 mmHg 56%
    06:00 +3°C° 0 mm 2 mps 692 mmHg 52%
    07:00 +6°C° 0 mm 1 mps 692 mmHg 49%
    08:00 +7°C° 0 mm 1 mps 692 mmHg 46%
    09:00 +8°C° 0 mm 1 mps 693 mmHg 43%
    10:00 +9°C° 0 mm 1 mps 692 mmHg 42%
    11:00 +10°C° 0 mm 1 mps 692 mmHg 41%
    12:00 +12°C° 0 mm 1 mps 692 mmHg 39%
    13:00 +12°C° 0 mm 1 mps 692 mmHg 41%
    14:00 +12°C° 0 mm 1 mps 691 mmHg 42%
    15:00 +12°C° 0 mm 1 mps 691 mmHg 44%
    16:00 +10°C° 0 mm 1 mps 691 mmHg 46%
    17:00 +9°C° 0 mm 1 mps 691 mmHg 49%
    18:00 +7°C° 0 mm 1 mps 691 mmHg 52%
    19:00 +7°C° 0 mm 1 mps 691 mmHg 49%
    20:00 +6°C° 0 mm 2 mps 691 mmHg 47%
    21:00 +6°C° 0 mm 2 mps 691 mmHg 45%
    22:00 +6°C° 0 mm 2 mps 691 mmHg 43%
    23:00 +6°C° 0 mm 2 mps 692 mmHg 41%

    19 December, Thursday

    Time Temperature Precipitation Wind Pressure Humidity
    00:00 +6°C° 0 mm 2 mps 692 mmHg 39%
    01:00 +6°C° 0 mm 2 mps 692 mmHg 39%
    02:00 +6°C° 0 mm 2 mps 691 mmHg 38%
    03:00 +5°C° 0 mm 2 mps 691 mmHg 38%
    04:00 +5°C° 0 mm 2 mps 691 mmHg 38%
    05:00 +5°C° 0 mm 2 mps 691 mmHg 38%
    06:00 +5°C° 0 mm 2 mps 692 mmHg 37%
    07:00 +7°C° 0 mm 2 mps 692 mmHg 36%
    08:00 +8°C° 0 mm 2 mps 692 mmHg 36%
    09:00 +9°C° 0 mm 2 mps 692 mmHg 35%
    10:00 +12°C° 0 mm 2 mps 692 mmHg 34%
    11:00 +13°C° 0 mm 2 mps 692 mmHg 33%
    12:00 +14°C° 0 mm 2 mps 692 mmHg 32%
    13:00 +14°C° 0 mm 2 mps 692 mmHg 33%
    14:00 +14°C° 0 mm 2 mps 691 mmHg 34%
    15:00 +14°C° 0 mm 2 mps 691 mmHg 35%
    16:00 +13°C° 0 mm 2 mps 691 mmHg 35%
    17:00 +10°C° 0 mm 2 mps 691 mmHg 35%
    18:00 +9°C° 0 mm 2 mps 691 mmHg 35%
    19:00 +9°C° 0 mm 2 mps 690 mmHg 34%
    20:00 +9°C° 0 mm 2 mps 690 mmHg 32%
    21:00 +9°C° 0 mm 3 mps 690 mmHg 31%
    22:00 +8°C° 0 mm 3 mps 690 mmHg 31%
    23:00 +8°C° 0 mm 3 mps 690 mmHg 30%

    20 December, Friday

    Time Temperature Precipitation Wind Pressure Humidity
    00:00 +8°C° 0 mm 3 mps 690 mmHg 30%
    01:00 +8°C° 0 mm 3 mps 690 mmHg 30%
    02:00 +8°C° 0 mm 3 mps 689 mmHg 31%
    03:00 +8°C° 0 mm 3 mps 689 mmHg 31%
    04:00 +8°C° 0 mm 3 mps 689 mmHg 31%
    05:00 +8°C° 0 mm 3 mps 689 mmHg 32%
    06:00 +8°C° 0 mm 3 mps 688 mmHg 32%
    07:00 +9°C° 0 mm 3 mps 689 mmHg 32%
    08:00 +10°C° 0 mm 3 mps 689 mmHg 32%
    09:00 +11°C° 0 mm 3 mps 689 mmHg 32%
    10:00 +13°C° 0 mm 2 mps 689 mmHg 30%
    11:00 +15°C° 0 mm 2 mps 689 mmHg 29%
    12:00 +16°C° 0 mm 2 mps 689 mmHg 28%
    13:00 +16°C° 0 mm 2 mps 688 mmHg 29%
    14:00 +16°C° 0 mm 2 mps 688 mmHg 30%
    15:00 +16°C° 0 mm 2 mps 687 mmHg 30%
    16:00 +14°C° 0 mm 2 mps 687 mmHg 32%
    17:00 +12°C° 0 mm 2 mps 687 mmHg 33%
    18:00 +10°C° 0 mm 2 mps 687 mmHg 35%
    19:00 +9°C° 0 mm 2 mps 686 mmHg 35%
    20:00 +9°C° 0 mm 2 mps 686 mmHg 34%
    21:00 +9°C° 0 mm 2 mps 686 mmHg 34%
    22:00 +9°C° 0 mm 3 mps 686 mmHg 33%
    23:00 +8°C° 0 mm 3 mps 686 mmHg 32%

    21 December, Saturday

    Time Temperature Precipitation Wind Pressure Humidity
    00:00 +8°C° 0 mm 3 mps 686 mmHg 32%
    01:00 +8°C° 0 mm 3 mps 686 mmHg 32%
    02:00 +8°C° 0 mm 3 mps 685 mmHg 32%
    03:00 +8°C° 0 mm 3 mps 685 mmHg 32%
    04:00 +7°C° 0 mm 3 mps 685 mmHg 32%
    05:00 +7°C° 0 mm 2 mps 685 mmHg 33%
    06:00 +7°C° 0 mm 2 mps 685 mmHg 33%
    07:00 +8°C° 0 mm 2 mps 685 mmHg 33%
    08:00 +9°C° 0 mm 2 mps 686 mmHg 32%
    09:00 +10°C° 0 mm 2 mps 686 mmHg 32%
    10:00 +12°C° 0 mm 2 mps 686 mmHg 31%
    11:00 +13°C° 0 mm 2 mps 686 mmHg 30%
    12:00 +14°C° 0 mm 1 mps 686 mmHg 29%
    13:00 +14°C° 0 mm 1 mps 686 mmHg 31%
    14:00 +13°C° 0 mm 1 mps 685 mmHg 32%
    15:00 +13°C° 0 mm 1 mps 685 mmHg 34%
    16:00 +11°C° 0 mm 1 mps 685 mmHg 37%
    17:00 +10°C° 0 mm 1 mps 685 mmHg 40%
    18:00 +7°C° 0 mm 0 mps 685 mmHg 44%
    19:00 +7°C° 0 mm 0 mps 685 mmHg 44%
    20:00 +7°C° 0 mm 1 mps 685 mmHg 43%
    21:00 +7°C° 0 mm 1 mps 685 mmHg 43%
    22:00 +7°C° 0 mm 1 mps 685 mmHg 43%
    23:00 +6°C° 0 mm 0 mps 685 mmHg 43%
    Show more